Weather History for KSBY - October, 2013

Change the Weather History Date:

Friday, October 11, 2013

  Actual Average Record
Temperature  
Mean Temperature 71 °F 59 °F  
Max Temperature 72 °F 70 °F 89 °F (1919)
Min Temperature 69 °F 48 °F 30 °F (1925)
Degree Days  
Heating Degree Days 0 7  
Month to date heating degree days 5 65  
Since 1 July heating degree days 32 113  
Cooling Degree Days 6 1  
Month to date cooling degree days 73 15  
Year to date cooling degree days 1605 1140  
Growing Degree Days 20 (Base 50)    
Moisture  
Dew Point 67 °F    
Average Humidity 92    
Maximum Humidity 93    
Minimum Humidity 90    
Precipitation  
Precipitation 0.46 in 0.11 in 2.83 in (2002)
Month to date precipitation 2.85 1.27  
Year to date precipitation 43.30 36.32  
Snow  
Snow 0.00 in 0.00 in 0.00 in (2002)
Month to date snowfall 0.0 0.0  
Since 1 July snowfall 0.0 0.0  
Snow Depth 0.00 in    
Sea Level Pressure  
Sea Level Pressure 29.87 in    
Wind  
Wind Speed 10 mph (NE)    
Max Wind Speed 17 mph    
Max Gust Speed 25 mph    
Visibility 3 miles    
Events Rain    
T = Trace of Precipitation, MM = Missing Value Source: NWS Daily Summary

Daily Weather History Graph

Daily Weather History Graph

Search for Another Location

Airport or City:

Trip Planner

Search our weather history database for the weather conditions in past years. The results will help you decide how hot, cold, wet, or windy it might be!

Date:

Astronomy

Oct. 11, 2013 Rise Set
Actual Time 7:07 AM EDT 6:29 PM EDT
Civil Twilight 6:40 AM EDT 6:55 PM EDT
Nautical Twilight 6:10 AM EDT 7:26 PM EDT
Astronomical Twilight 5:39 AM EDT 7:57 PM EDT
Moon 1:44 PM EDT (10/11) No Moon Set
Length of Visible Light 12h 15m
Length of Day
11h 22m
Waxing Crescent, 47% of the Moon is Illuminated
Oct 11
Waxing Crescent
Oct 11
First Quarter
Oct 18
Full
Oct 26
Last Quarter
Nov 3
New

Hourly Weather History & Observations

Time (EDT) Temp. Dew Point Humidity Pressure Visibility Wind Dir Wind Speed Gust Speed Precip Events Conditions
12:14 AM 69.8 °F 66.2 °F 88% 29.87 in 9.0 mi NE 12.7 mph - 0.00 in Rain Light Rain
12:25 AM 69.8 °F 66.2 °F 88% 29.87 in 1.8 mi NE 13.8 mph - 0.16 in Rain Heavy Rain
12:37 AM 69.8 °F 66.2 °F 88% 29.87 in 2.0 mi ENE 13.8 mph - 0.28 in Rain Heavy Rain
12:43 AM 69.8 °F 66.2 °F 88% 29.87 in 1.2 mi NE 11.5 mph - 0.43 in Rain Heavy Rain
12:54 AM 70.0 °F 66.9 °F 90% 29.87 in 1.8 mi NE 9.2 mph - 0.59 in Rain Heavy Rain
1:07 AM 69.8 °F 66.2 °F 88% 29.86 in 1.2 mi NNE 15.0 mph - 0.30 in Rain Heavy Rain
1:14 AM 69.8 °F 66.2 °F 88% 29.86 in 3.0 mi NE 13.8 mph - 0.31 in Rain Light Rain
1:22 AM 69.8 °F 66.2 °F 88% 29.86 in 3.0 mi NE 12.7 mph 21.9 mph 0.31 in Rain Light Rain
1:35 AM 69.8 °F 66.2 °F 88% 29.86 in 2.0 mi NE 12.7 mph - 0.39 in Rain Rain
1:54 AM 69.1 °F 66.0 °F 90% 29.86 in 2.5 mi NE 11.5 mph 20.7 mph 0.42 in Rain Light Rain
2:24 AM 69.8 °F 66.2 °F 88% 29.85 in 4.0 mi NE 10.4 mph - 0.00 in   Overcast
2:54 AM 69.1 °F 66.9 °F 93% 29.85 in 10.0 mi NE 9.2 mph - 0.00 in   Overcast
3:10 AM 69.8 °F 66.2 °F 88% 29.84 in 2.5 mi NNE 10.4 mph - 0.03 in Rain Light Rain
3:21 AM 69.8 °F 66.2 °F 88% 29.83 in 4.0 mi NE 10.4 mph - 0.03 in Rain Light Rain
3:54 AM 69.1 °F 66.9 °F 93% 29.84 in 6.0 mi NE 9.2 mph - 0.04 in   Overcast
4:54 AM 69.1 °F 66.9 °F 93% 29.85 in 6.0 mi NNE 5.8 mph - 0.01 in   Overcast
5:39 AM 69.8 °F 66.2 °F 88% 29.84 in 9.0 mi North 6.9 mph - N/A   Overcast
5:54 AM 69.1 °F 66.0 °F 90% 29.86 in 8.0 mi North 8.1 mph - N/A   Overcast
6:54 AM 69.1 °F 66.9 °F 93% 29.86 in 6.0 mi North 5.8 mph - 0.00 in Rain Light Rain
7:54 AM 70.0 °F 66.9 °F 90% 29.87 in 4.0 mi NNE 8.1 mph - 0.00 in Rain Light Rain
8:54 AM 71.1 °F 68.0 °F 90% 29.87 in 10.0 mi NE 11.5 mph - 0.00 in   Overcast
9:54 AM 72.0 °F 68.0 °F 87% 29.88 in 10.0 mi NE 11.5 mph 21.9 mph N/A   Overcast
10:54 AM 71.1 °F 68.0 °F 90% 29.88 in 4.0 mi NE 12.7 mph - 0.00 in   Overcast
11:07 AM 71.6 °F 68.0 °F 88% 29.88 in 2.0 mi NE 8.1 mph - 0.00 in Rain Light Rain
11:15 AM 71.6 °F 68.0 °F 88% 29.88 in 1.8 mi NE 10.4 mph - 0.00 in Rain Light Rain
11:23 AM 71.6 °F 68.0 °F 88% 29.88 in 1.8 mi NE 11.5 mph 17.3 mph 0.00 in Rain Light Rain
11:32 AM 71.6 °F 68.0 °F 88% 29.88 in 3.0 mi NE 8.1 mph - 0.00 in Rain Light Rain
11:46 AM 71.6 °F 68.0 °F 88% 29.88 in 2.5 mi NE 9.2 mph - 0.00 in Rain Light Rain
11:50 AM 71.6 °F 68.0 °F 88% 29.88 in 3.0 mi NE 9.2 mph - 0.01 in Rain Light Rain
11:54 AM 71.1 °F 68.0 °F 90% 29.88 in 3.0 mi NE 8.1 mph - 0.01 in Rain Light Rain
12:23 PM 71.6 °F 68.0 °F 88% 29.87 in 1.8 mi NE 10.4 mph - 0.00 in Rain Light Rain
12:41 PM 71.6 °F 68.0 °F 88% 29.87 in 2.0 mi ENE 9.2 mph - 0.00 in Rain Light Rain
12:54 PM 71.1 °F 68.0 °F 90% 29.87 in 2.0 mi ENE 10.4 mph - 0.00 in   Overcast
1:09 PM 71.6 °F 69.8 °F 94% 29.86 in 3.0 mi ENE 9.2 mph - N/A   Overcast
1:45 PM 71.6 °F 69.8 °F 94% 29.86 in 1.5 mi ENE 11.5 mph - 0.01 in Rain Light Rain
1:54 PM 72.0 °F 69.1 °F 91% 29.86 in 1.5 mi ENE 11.5 mph - 0.03 in Rain Rain
2:06 PM 71.6 °F 69.8 °F 94% 29.86 in 2.5 mi ENE 11.5 mph - 0.01 in Rain Light Rain
2:54 PM 72.0 °F 69.1 °F 91% 29.86 in 2.0 mi NE 9.2 mph - 0.01 in Rain Light Rain
3:01 PM 71.6 °F 68.0 °F 88% 29.85 in 6.0 mi NE 10.4 mph - 0.00 in   Overcast
3:20 PM 71.6 °F 69.8 °F 94% 29.85 in 2.5 mi NE 9.2 mph - 0.00 in   Overcast
3:45 PM 71.6 °F 68.0 °F 88% 29.85 in 1.8 mi NE 9.2 mph - 0.00 in   Overcast
3:54 PM 71.1 °F 68.0 °F 90% 29.86 in 2.0 mi NNE 8.1 mph - 0.00 in   Overcast
4:28 PM 71.6 °F 68.0 °F 88% 29.86 in 3.0 mi NE 6.9 mph - N/A   Overcast
4:41 PM 71.6 °F 68.0 °F 88% 29.86 in 2.0 mi NE 9.2 mph - 0.00 in Rain Light Rain
4:54 PM 70.0 °F 66.9 °F 90% 29.86 in 2.5 mi NE 10.4 mph - 0.00 in   Overcast
5:25 PM 69.8 °F 66.2 °F 88% 29.86 in 1.8 mi NNE 10.4 mph - 0.01 in Rain Light Rain
5:34 PM 69.8 °F 66.2 °F 88% 29.86 in 2.0 mi NNE 9.2 mph - 0.01 in Rain Light Rain
5:54 PM 70.0 °F 66.9 °F 90% 29.87 in 1.8 mi NNE 6.9 mph - 0.01 in Rain Light Rain
6:00 PM 69.8 °F 66.2 °F 88% 29.87 in 2.0 mi NNE 9.2 mph - 0.00 in Rain Light Rain
6:09 PM 69.8 °F 66.2 °F 88% 29.87 in 1.2 mi NNE 9.2 mph - 0.00 in Rain Light Rain
6:35 PM 69.8 °F 66.2 °F 88% 29.88 in 2.0 mi NNE 9.2 mph - 0.00 in Rain Light Rain
6:54 PM 70.0 °F 66.9 °F 90% 29.90 in 2.5 mi NNE 6.9 mph - 0.01 in Rain Light Rain
7:16 PM 69.8 °F 66.2 °F 88% 29.89 in 4.0 mi NE 8.1 mph - 0.01 in   Overcast
7:54 PM 70.0 °F 66.9 °F 90% 29.90 in 4.0 mi ENE 8.1 mph - 0.01 in   Overcast
8:05 PM 69.8 °F 66.2 °F 88% 29.90 in 2.5 mi ENE 11.5 mph - N/A   Overcast
8:27 PM 69.8 °F 66.2 °F 88% 29.90 in 3.0 mi ENE 12.7 mph 19.6 mph 0.00 in Rain Light Rain
8:34 PM 69.8 °F 66.2 °F 88% 29.90 in 2.5 mi ENE 10.4 mph 19.6 mph 0.00 in Rain Light Rain
8:50 PM 69.8 °F 66.2 °F 88% 29.90 in 3.0 mi ENE 11.5 mph - 0.00 in   Overcast
8:54 PM 70.0 °F 66.9 °F 90% 29.91 in 4.0 mi ENE 11.5 mph - 0.00 in   Overcast
9:54 PM 70.0 °F 66.9 °F 90% 29.94 in 3.0 mi NE 12.7 mph - 0.00 in Rain Light Rain
10:54 PM 69.1 °F 66.0 °F 90% 29.93 in 6.0 mi ENE 15.0 mph 21.9 mph 0.00 in   Overcast
11:54 PM 69.1 °F 66.0 °F 90% 29.94 in 4.0 mi ENE 12.7 mph 20.7 mph 0.00 in Rain Light Rain